When you browse on this site, cookies collect data to enhance your experience and personalize the content and advertising you see.
Visit our Privacy Policy to learn more. By continuing to use the site, you agree to this use of cookies and data.
  • In Spain
  • List of Countries
  • For 7 days
  • Water Temperature
  • Weather Map
  • Weather Widgets
  • user-avatar
    Login

    Hourly Weather Lincoln

    Today, 4 June, Thursday

    Time Temperature Precipitation Wind Pressure Humidity
    00:00 +6°C° 0 mm 4 mps 751 mmHg 93%
    01:00 +7°C° 0.1 mm 5 mps 750 mmHg 93%
    02:00 +7°C° 0.1 mm 5 mps 750 mmHg 93%
    03:00 +7°C° 0.1 mm 5 mps 749 mmHg 93%
    04:00 +7°C° 0 mm 5 mps 749 mmHg 90%
    05:00 +7°C° 0 mm 5 mps 749 mmHg 86%
    06:00 +8°C° 0 mm 6 mps 749 mmHg 83%
    07:00 +9°C° 0 mm 5 mps 748 mmHg 77%
    08:00 +10°C° 0 mm 5 mps 748 mmHg 71%
    09:00 +12°C° 0 mm 5 mps 748 mmHg 65%
    10:00 +12°C° 0.1 mm 5 mps 747 mmHg 63%
    11:00 +13°C° 0.1 mm 5 mps 747 mmHg 61%
    12:00 +13°C° 0.1 mm 4 mps 747 mmHg 59%
    13:00 +14°C° 0 mm 4 mps 747 mmHg 58%
    14:00 +14°C° 0 mm 3 mps 746 mmHg 58%
    15:00 +14°C° 0 mm 3 mps 746 mmHg 57%
    16:00 +15°C° 0.2 mm 2 mps 745 mmHg 61%
    17:00 +14°C° 0.2 mm 2 mps 745 mmHg 65%
    18:00 +14°C° 0.2 mm 2 mps 744 mmHg 69%
    19:00 +13°C° 0.3 mm 2 mps 744 mmHg 75%
    20:00 +10°C° 0.3 mm 2 mps 744 mmHg 82%
    21:00 +9°C° 0.3 mm 2 mps 744 mmHg 88%
    22:00 +9°C° 0.3 mm 3 mps 743 mmHg 90%
    23:00 +9°C° 0.3 mm 3 mps 743 mmHg 91%

    Tomorrow, 5 June, Friday

    Time Temperature Precipitation Wind Pressure Humidity
    00:00 +8°C° 0.3 mm 4 mps 742 mmHg 92%
    01:00 +7°C° 0.1 mm 4 mps 742 mmHg 93%
    02:00 +7°C° 0.1 mm 4 mps 741 mmHg 94%
    03:00 +7°C° 0.1 mm 3 mps 741 mmHg 95%
    04:00 +7°C° 0.3 mm 3 mps 741 mmHg 95%
    05:00 +7°C° 0.3 mm 3 mps 741 mmHg 94%
    06:00 +7°C° 0.3 mm 3 mps 741 mmHg 94%
    07:00 +8°C° 0.2 mm 3 mps 741 mmHg 91%
    08:00 +7°C° 0.2 mm 4 mps 741 mmHg 88%
    09:00 +8°C° 0.2 mm 4 mps 741 mmHg 84%
    10:00 +10°C° 0.3 mm 4 mps 741 mmHg 79%
    11:00 +11°C° 0.3 mm 4 mps 741 mmHg 74%
    12:00 +12°C° 0.3 mm 5 mps 741 mmHg 69%
    13:00 +11°C° 0.7 mm 6 mps 741 mmHg 67%
    14:00 +11°C° 0.7 mm 6 mps 740 mmHg 66%
    15:00 +12°C° 0.7 mm 7 mps 740 mmHg 64%
    16:00 +11°C° 0.3 mm 7 mps 740 mmHg 66%
    17:00 +11°C° 0.3 mm 6 mps 740 mmHg 68%
    18:00 +10°C° 0.3 mm 6 mps 740 mmHg 69%
    19:00 +9°C° 0 mm 6 mps 740 mmHg 69%
    20:00 +8°C° 0 mm 6 mps 740 mmHg 68%
    21:00 +5°C° 0 mm 6 mps 741 mmHg 67%
    22:00 +5°C° 0 mm 6 mps 740 mmHg 68%
    23:00 +5°C° 0 mm 6 mps 740 mmHg 69%

    Day after tomorrow, 6 June, Saturday

    Time Temperature Precipitation Wind Pressure Humidity
    00:00 +4°C° 0 mm 6 mps 740 mmHg 70%
    01:00 +5°C° 0 mm 8 mps 739 mmHg 71%
    02:00 +5°C° 0 mm 9 mps 739 mmHg 71%
    03:00 +6°C° 0 mm 10 mps 739 mmHg 72%
    04:00 +6°C° 0.4 mm 10 mps 738 mmHg 77%
    05:00 +6°C° 0.4 mm 10 mps 737 mmHg 82%
    06:00 +6°C° 0.4 mm 10 mps 737 mmHg 87%
    07:00 +7°C° 0.6 mm 10 mps 737 mmHg 86%
    08:00 +8°C° 0.6 mm 10 mps 737 mmHg 85%
    09:00 +10°C° 0.6 mm 9 mps 736 mmHg 83%
    10:00 +11°C° 0.3 mm 10 mps 737 mmHg 79%
    11:00 +12°C° 0.3 mm 10 mps 737 mmHg 74%
    12:00 +12°C° 0.3 mm 10 mps 737 mmHg 69%
    13:00 +12°C° 0.4 mm 9 mps 737 mmHg 73%
    14:00 +12°C° 0.4 mm 8 mps 738 mmHg 77%
    15:00 +11°C° 0.4 mm 7 mps 738 mmHg 81%
    16:00 +11°C° 0.6 mm 7 mps 739 mmHg 82%
    17:00 +11°C° 0.6 mm 6 mps 740 mmHg 83%
    18:00 +11°C° 0.6 mm 6 mps 740 mmHg 85%
    19:00 +10°C° 0.1 mm 5 mps 741 mmHg 86%
    20:00 +8°C° 0.1 mm 4 mps 742 mmHg 87%
    21:00 +7°C° 0.1 mm 4 mps 743 mmHg 88%
    22:00 +8°C° 0 mm 3 mps 743 mmHg 89%
    23:00 +8°C° 0 mm 3 mps 744 mmHg 90%

    7 June, Sunday

    Time Temperature Precipitation Wind Pressure Humidity
    00:00 +8°C° 0 mm 3 mps 744 mmHg 90%
    01:00 +8°C° 0 mm 3 mps 745 mmHg 91%
    02:00 +7°C° 0 mm 3 mps 746 mmHg 92%
    03:00 +7°C° 0 mm 3 mps 746 mmHg 92%
    04:00 +8°C° 0 mm 3 mps 746 mmHg 92%
    05:00 +9°C° 0 mm 3 mps 747 mmHg 91%
    06:00 +10°C° 0 mm 3 mps 747 mmHg 90%
    07:00 +12°C° 0.1 mm 3 mps 748 mmHg 85%
    08:00 +13°C° 0.1 mm 3 mps 748 mmHg 80%
    09:00 +15°C° 0.1 mm 4 mps 749 mmHg 75%
    10:00 +15°C° 0.6 mm 4 mps 749 mmHg 75%
    11:00 +17°C° 0.6 mm 4 mps 750 mmHg 74%
    12:00 +17°C° 0.6 mm 4 mps 750 mmHg 73%
    13:00 +17°C° 0.8 mm 4 mps 750 mmHg 76%
    14:00 +15°C° 0.8 mm 5 mps 750 mmHg 78%
    15:00 +15°C° 0.8 mm 5 mps 751 mmHg 81%
    16:00 +14°C° 0.2 mm 5 mps 751 mmHg 82%
    17:00 +14°C° 0.2 mm 5 mps 752 mmHg 83%
    18:00 +13°C° 0.2 mm 5 mps 752 mmHg 84%
    19:00 +12°C° 0 mm 5 mps 753 mmHg 86%
    20:00 +12°C° 0 mm 4 mps 754 mmHg 88%
    21:00 +11°C° 0 mm 4 mps 754 mmHg 90%
    22:00 +11°C° 0.1 mm 4 mps 755 mmHg 90%
    23:00 +11°C° 0.1 mm 4 mps 755 mmHg 91%

    8 June, Monday

    Time Temperature Precipitation Wind Pressure Humidity
    00:00 +10°C° 0.1 mm 5 mps 755 mmHg 91%
    01:00 +11°C° 0.1 mm 4 mps 756 mmHg 91%
    02:00 +11°C° 0.1 mm 4 mps 756 mmHg 92%
    03:00 +11°C° 0.1 mm 4 mps 756 mmHg 92%
    04:00 +11°C° 0 mm 4 mps 757 mmHg 91%
    05:00 +11°C° 0 mm 4 mps 757 mmHg 91%
    06:00 +11°C° 0 mm 4 mps 758 mmHg 90%
    07:00 +10°C° 0.1 mm 5 mps 758 mmHg 89%
    08:00 +10°C° 0.1 mm 5 mps 759 mmHg 87%
    09:00 +10°C° 0.1 mm 5 mps 759 mmHg 85%
    10:00 +12°C° 0.1 mm 5 mps 759 mmHg 78%
    11:00 +13°C° 0.1 mm 6 mps 760 mmHg 71%
    12:00 +14°C° 0.1 mm 6 mps 760 mmHg 63%
    13:00 +14°C° 0 mm 6 mps 760 mmHg 62%
    14:00 +14°C° 0 mm 6 mps 760 mmHg 62%
    15:00 +14°C° 0 mm 6 mps 760 mmHg 61%
    16:00 +13°C° 0 mm 5 mps 760 mmHg 62%
    17:00 +12°C° 0 mm 5 mps 760 mmHg 64%
    18:00 +12°C° 0 mm 5 mps 760 mmHg 66%
    19:00 +10°C° 0 mm 4 mps 761 mmHg 71%
    20:00 +8°C° 0 mm 3 mps 761 mmHg 76%
    21:00 +7°C° 0 mm 2 mps 762 mmHg 82%
    22:00 +6°C° 0 mm 2 mps 762 mmHg 83%
    23:00 +6°C° 0 mm 2 mps 762 mmHg 84%

    9 June, Tuesday

    Time Temperature Precipitation Wind Pressure Humidity
    00:00 +5°C° 0 mm 2 mps 762 mmHg 85%
    01:00 +5°C° 0 mm 2 mps 762 mmHg 86%
    02:00 +5°C° 0 mm 2 mps 762 mmHg 88%
    03:00 +4°C° 0 mm 2 mps 762 mmHg 89%
    04:00 +6°C° 0 mm 2 mps 762 mmHg 85%
    05:00 +7°C° 0 mm 2 mps 762 mmHg 81%
    06:00 +8°C° 0 mm 2 mps 762 mmHg 77%
    07:00 +9°C° 0 mm 2 mps 762 mmHg 74%
    08:00 +11°C° 0 mm 1 mps 762 mmHg 71%
    09:00 +12°C° 0 mm 1 mps 762 mmHg 68%
    10:00 +13°C° 0 mm 2 mps 762 mmHg 67%
    11:00 +14°C° 0 mm 2 mps 761 mmHg 66%
    12:00 +15°C° 0 mm 2 mps 761 mmHg 65%
    13:00 +16°C° 0 mm 3 mps 761 mmHg 66%
    14:00 +16°C° 0 mm 3 mps 760 mmHg 67%
    15:00 +16°C° 0 mm 3 mps 760 mmHg 68%
    16:00 +16°C° 0.1 mm 3 mps 760 mmHg 70%
    17:00 +16°C° 0.1 mm 3 mps 760 mmHg 72%
    18:00 +14°C° 0.1 mm 4 mps 759 mmHg 74%
    19:00 +13°C° 0 mm 3 mps 759 mmHg 72%
    20:00 +12°C° 0 mm 3 mps 759 mmHg 70%
    21:00 +11°C° 0 mm 3 mps 759 mmHg 69%
    22:00 +11°C° 0 mm 3 mps 758 mmHg 68%
    23:00 +11°C° 0 mm 3 mps 758 mmHg 67%
    Show more